Mount Airy, NC

3:19 AM EST on December 09, 2019 (GMT -0500)
Mount Airy-Surry County

Weather History for KMWK - November, 2019

Change the Weather History Date:

Saturday, November 16, 2019

  Actual Average (KINT) Record (KINT)
Temperature  
Mean Temperature 42 °F -  
Max Temperature 51 °F 57 °F 78 °F (1991)
Min Temperature 33 °F 39 °F 16 °F (1969)
Degree Days  
Heating Degree Days 24    
Moisture  
Dew Point 28 °F    
Average Humidity 58    
Maximum Humidity 87    
Minimum Humidity 41    
Precipitation  
Precipitation 0.00 in - - ()
Sea Level Pressure  
Sea Level Pressure 30.18 in    
Wind  
Wind Speed 4 mph ()    
Max Wind Speed 16 mph    
Max Gust Speed 24 mph    
Visibility 10.0 miles    
Events      
Averages and records for this station are not official NWS values.
T = Trace of Precipitation, MM = Missing Value Source: Averaged Metar Reports

Daily Weather History Graph

Daily Weather History Graph

Search for Another Location

Airport or City:

Astronomy

Nov. 16, 2019 Rise Set
Actual Time 7:00 AM EST 5:13 PM EST
Civil Twilight 6:32 AM EST 5:40 PM EST
Nautical Twilight 6:01 AM EST 6:11 PM EST
Astronomical Twilight 5:31 AM EST 6:42 PM EST
Moon 8:47 PM EST (11/16) 10:49 AM EST (11/16)
Length of Visible Light 11h 07m
Length of Day
10h 12m
Waning Gibbous, 82% of the Moon is Illuminated
Nov 16
Waning Gibbous
Nov 19
Last Quarter
Nov 26
New
Dec 4
First Quarter
Dec 12
Full

Hourly Weather History & Observations

Time (EST) Temp. Windchill Dew Point Humidity Pressure Visibility Wind Dir Wind Speed Gust Speed Precip Events Conditions
12:15 AM 35.1 °F - 30.2 °F 82% 30.14 in 10.0 mi Calm Calm - N/A   Clear
12:35 AM 34.0 °F - 29.7 °F 84% 30.15 in 10.0 mi Calm Calm - N/A   Clear
12:55 AM 33.8 °F 30.8 °F 29.8 °F 85% 30.14 in 10.0 mi North 3.5 mph - N/A   Clear
1:15 AM 39.6 °F - 29.8 °F 68% 30.13 in 10.0 mi Calm Calm - N/A   Clear
1:35 AM 36.0 °F - 30.0 °F 79% 30.13 in 10.0 mi Calm Calm - N/A   Clear
1:55 AM 36.3 °F - 30.0 °F 78% 30.13 in 10.0 mi Calm Calm - N/A   Clear
2:15 AM 33.8 °F - 30.0 °F 86% 30.13 in 7.0 mi Calm Calm - N/A   Clear
2:35 AM 38.1 °F - 29.8 °F 72% 30.13 in 10.0 mi Calm Calm - N/A   Clear
2:55 AM 33.6 °F - 29.5 °F 85% 30.13 in 10.0 mi Calm Calm - N/A   Clear
3:15 AM 33.3 °F - 29.8 °F 87% 30.12 in 10.0 mi Calm Calm - N/A   Clear
3:35 AM 36.5 °F - 30.0 °F 77% 30.13 in 10.0 mi Calm Calm - N/A   Clear
3:55 AM 36.5 °F - 29.7 °F 76% 30.13 in 10.0 mi Calm Calm - N/A   Clear
4:15 AM 36.0 °F - 29.5 °F 77% 30.13 in 10.0 mi Calm Calm - N/A   Clear
4:35 AM 37.8 °F - 29.1 °F 71% 30.14 in 10.0 mi Calm Calm - N/A   Clear
4:55 AM 34.5 °F - 29.5 °F 82% 30.15 in 10.0 mi Calm Calm - N/A   Clear
5:15 AM 35.4 °F - 29.3 °F 78% 30.15 in 10.0 mi Calm Calm - N/A   Clear
5:35 AM 38.7 °F 36.3 °F 28.4 °F 67% 30.15 in 10.0 mi NNW 3.5 mph - N/A   Clear
5:55 AM 37.4 °F - 28.4 °F 70% 30.16 in 10.0 mi Calm Calm - N/A   Scattered Clouds
6:15 AM 39.6 °F 35.4 °F 27.7 °F 62% 30.16 in 10.0 mi North 5.8 mph - N/A   Overcast
6:35 AM 40.5 °F 37.3 °F 27.0 °F 59% 30.17 in 10.0 mi North 4.6 mph - N/A   Overcast
7:15 AM 41.2 °F 39.2 °F 27.0 °F 57% 30.18 in 10.0 mi NNW 3.5 mph - N/A   Overcast
7:35 AM 42.8 °F 39.3 °F 26.4 °F 52% 30.18 in 10.0 mi NNE 5.8 mph - N/A   Mostly Cloudy
7:55 AM 44.1 °F 38.6 °F 25.9 °F 49% 30.19 in 10.0 mi NE 10.4 mph - N/A   Mostly Cloudy
8:15 AM 44.6 °F 40.7 °F 26.6 °F 49% 30.19 in 10.0 mi NE 6.9 mph - N/A   Mostly Cloudy
8:35 AM 44.1 °F 41.5 °F 27.3 °F 52% 30.19 in 10.0 mi NE 4.6 mph - N/A   Scattered Clouds
8:55 AM 44.6 °F 41.4 °F 28.2 °F 53% 30.20 in 10.0 mi ENE 5.8 mph - N/A   Scattered Clouds
9:15 AM 45.0 °F 37.9 °F 28.0 °F 52% 30.20 in 10.0 mi ENE 16.1 mph 21.9 mph N/A   Mostly Cloudy
9:35 AM 44.6 °F 41.4 °F 27.9 °F 52% 30.21 in 10.0 mi NE 5.8 mph 23.0 mph N/A   Mostly Cloudy
9:55 AM 44.6 °F 40.2 °F 28.6 °F 53% 30.21 in 10.0 mi ENE 8.1 mph - N/A   Scattered Clouds
10:15 AM 44.8 °F 41.0 °F 28.2 °F 52% 30.22 in 10.0 mi ENE 6.9 mph - N/A   Scattered Clouds
10:35 AM 46.0 °F 42.5 °F 28.2 °F 50% 30.22 in 10.0 mi NE 6.9 mph - N/A   Scattered Clouds
10:55 AM 46.9 °F - 27.0 °F 46% 30.22 in 10.0 mi ENE 9.2 mph 20.7 mph N/A   Mostly Cloudy
11:35 AM 46.4 °F 43.5 °F 27.7 °F 48% 30.20 in 10.0 mi ENE 5.8 mph - N/A   Scattered Clouds
11:55 AM 48.0 °F - 27.9 °F 46% 30.19 in 10.0 mi ENE 6.9 mph - N/A   Scattered Clouds
12:15 PM 49.1 °F - 28.4 °F 45% 30.18 in 10.0 mi NE 8.1 mph - N/A   Scattered Clouds
12:55 PM 49.8 °F - 28.2 °F 43% 30.17 in 10.0 mi ENE 9.2 mph - N/A   Mostly Cloudy
1:15 PM 50.2 °F - 28.2 °F 43% 30.16 in 10.0 mi ENE 11.5 mph 16.1 mph N/A   Scattered Clouds
1:35 PM 50.5 °F - 28.6 °F 43% 30.16 in 10.0 mi NE 6.9 mph - N/A   Mostly Cloudy
1:55 PM 50.7 °F - 28.4 °F 42% 30.15 in 10.0 mi NE 6.9 mph - N/A   Mostly Cloudy
2:15 PM 50.4 °F - 28.8 °F 43% 30.14 in 10.0 mi NE 10.4 mph 16.1 mph N/A   Scattered Clouds
2:35 PM 50.7 °F - 28.2 °F 42% 30.14 in 10.0 mi NNE 10.4 mph 18.4 mph N/A   Scattered Clouds
2:55 PM 50.9 °F - 27.7 °F 41% 30.14 in 10.0 mi ENE 13.8 mph 18.4 mph N/A   Clear
3:15 PM 50.9 °F - 28.0 °F 41% 30.14 in 10.0 mi ENE 6.9 mph 19.6 mph N/A   Clear
3:35 PM 50.2 °F - 28.0 °F 42% 30.14 in 10.0 mi NE 6.9 mph - N/A   Clear
4:15 PM 49.6 °F - 27.7 °F 43% 30.16 in 10.0 mi ENE 12.7 mph 18.4 mph N/A   Clear
4:55 PM 47.5 °F - 27.9 °F 47% 30.17 in 10.0 mi ENE 9.2 mph - N/A   Clear
5:15 PM 46.6 °F - 27.1 °F 47% 30.18 in 10.0 mi ENE 10.4 mph - N/A   Clear
5:35 PM 45.7 °F 41.0 °F 27.3 °F 49% 30.18 in 10.0 mi ENE 9.2 mph 19.6 mph N/A   Clear
5:55 PM 45.0 °F 40.6 °F 27.5 °F 50% 30.18 in 10.0 mi NE 8.1 mph - N/A   Clear
6:35 PM 44.6 °F 39.7 °F 27.3 °F 51% 30.20 in 10.0 mi ENE 9.2 mph - N/A   Mostly Cloudy
6:55 PM 44.1 °F 38.6 °F 27.0 °F 51% 30.20 in 10.0 mi NE 10.4 mph - N/A   Overcast
7:15 PM 44.1 °F 40.1 °F 26.6 °F 50% 30.20 in 10.0 mi NE 6.9 mph 11.5 mph N/A   Overcast
7:35 PM 43.7 °F 37.3 °F 27.5 °F 53% 30.20 in 10.0 mi NE 12.7 mph 19.6 mph N/A   Overcast
7:55 PM 43.2 °F 37.4 °F 27.0 °F 53% 30.20 in 10.0 mi NE 10.4 mph 19.6 mph N/A   Overcast
8:15 PM 42.8 °F 35.4 °F 26.8 °F 53% 30.21 in 10.0 mi ENE 15.0 mph 19.6 mph N/A   Overcast
8:35 PM 42.1 °F 36.1 °F 26.8 °F 55% 30.22 in 10.0 mi NE 10.4 mph 24.2 mph N/A   Overcast
8:55 PM 41.9 °F 35.4 °F 27.5 °F 57% 30.22 in 10.0 mi ENE 11.5 mph 17.3 mph N/A   Overcast
9:15 PM 41.2 °F 35.5 °F 27.5 °F 58% 30.22 in 10.0 mi ENE 9.2 mph - N/A   Mostly Cloudy
9:35 PM 40.5 °F 34.6 °F 27.5 °F 60% 30.22 in 10.0 mi NE 9.2 mph 17.3 mph N/A   Scattered Clouds
9:55 PM 40.1 °F 36.9 °F 27.3 °F 60% 30.22 in 10.0 mi NE 4.6 mph - N/A   Mostly Cloudy
10:15 PM 39.6 °F 34.7 °F 27.0 °F 61% 30.22 in 10.0 mi NNE 6.9 mph - N/A   Mostly Cloudy
10:35 PM 39.6 °F 34.7 °F 26.1 °F 58% 30.21 in 10.0 mi NNE 6.9 mph - N/A   Overcast
10:55 PM 39.4 °F 33.8 °F 24.6 °F 56% 30.21 in 10.0 mi NNE 8.1 mph 17.3 mph N/A   Overcast
11:15 PM 39.2 °F 32.5 °F 24.6 °F 56% 30.21 in 10.0 mi NNE 10.4 mph 18.4 mph N/A   Mostly Cloudy
11:35 PM 39.2 °F 33.0 °F 25.3 °F 58% 30.21 in 10.0 mi NNE 9.2 mph 18.4 mph N/A   Overcast
11:55 PM 39.2 °F 33.0 °F 25.5 °F 58% 30.21 in 10.0 mi NNE 9.2 mph 16.1 mph N/A   Overcast